RED-EYE 1 (PINOT)

Last updated on Wed Jul 27 2022 00:02:06 GMT+0000 (Coordinated Universal Time)

1 44364U 98067QJ 22205.82558565 .23566251 12789-4 19042-3 0 9996 2 44364 51.6317 55.5129 0010674 291.3980 182.8559 16.51563126175459

Satellite not in orbit

RED-EYE 1 (PINOT)